Live Position
Loading 3D Globe...
About Aman Zhineng Yaogan-1
Group: 3 satellites
Description loading...
Upcoming Passes
Passes for default location (London). Set your location on the main map for personalized predictions.
Altitude History
Loading altitude history...
No altitude history available
Two-Line Element Set
1 61899U 24205F 26101.64305803 .00015316 00000-0 79623-3 0 9991
2 61899 97.4108 174.6918 0002334 157.0827 203.0511 15.16156159 78201
Epoch: Apr 11, 2026 •
Age: 136 hours
Current Status
Altitude 546.4 km
Velocity 7.59 km/s
Sub-Earth Point -82.25°S,
62.33°W
Launch Date Nov 11, 2024
Age 1.4 years
Type military
Technical Details
Classification Payload
Mass 100.00 kg
Dry Mass 100.00 kg
Total Mass 100.00 kg
Length 0.30 m
Diameter 0.30 m
Span 1.00 m
Shape Box + 2 pan
Manufacturer STARV/SQU
Phase Status In Orbit
Owner/State SQU/STARV/OM
Most Searched
Loading...